Tracking 30995 objects as of 6-Jul-2025
HD Live streaming from Space Station
objects crossing your sky now

FENGYUN 1C DEB

Track FENGYUN 1C DEB now!
10-day predictions


NORAD ID: 30557
Int'l Code: 1999-025AKX
Perigee: 818.5 km
Apogee: 915.4 km
Inclination: 98.9 °
Period: 102.1 minutes
Semi major axis: 7237 km
RCS: 0.043 m2 (small)
Launch date: May 10, 1999
Source: People's Republic of China (PRC)
Launch site: Taiyaun Space Center, China (TSC)

Note: This is SATELLITE DEBRIS
Your satellite tracking list
ONEWEB-0088
Track 1 satellite(s)




NASA's NSSDC Master Catalog

Two Line Element Set (TLE):
1 30557U 99025AKX 25187.71209817  .00001162  00000-0  67180-3 0  9998
2 30557  98.9303 254.0599 0066916 322.1581  37.4895 14.09875920940833
Source of the keplerian elements: AFSPC